Location: ????????
(37.6846°N, 24.0673°E)
Time: 14:54:38
(UTC+00:00)

Cosmos 2233 Rocket - Pass Details

Date: 14 July 2020
Orbit: 954 x 990 km, 82.9° (Epoch: 04 August)

Event Time Altitude Azimuth Distance (km) Brightness Sun altitude
Exits shadow 00:55:03 40° 200° (SSW) 1,393 4.3 -21.5°
Maximum altitude 00:57:26 75° 277° (W) 1,002 3.9 -21.3°
Drops below altitude 10° 01:03:41 10° 3° (N) 2,730 7.1 -20.5°
Sets 01:06:14 0° 5° (N) 3,687 8.0 -20.2°
